Regional Weather Roundup
Issued by NWS Charleston, SC

Current Version | Previous Version | Text Only | Print | Product List | Glossary Off
Versions: 1 2 3 4 5 6 7 8 9 10 11 12 13 14 15 16 17 18 19 20 21 22 23 24 25 26 27 28 29 30 31 32 33 34 35 36 37 38 39 40 41 42 43 44 45 46 47 48 49 50
000 ASUS42 KCHS 200512 RWRCHS Regional Weather Roundup National Weather Service Charleston SC 100 AM EDT FRI APR 20 2018 NOTE: "fair" indicates few or no clouds below 12,000 feet with no significant weather and/or obstructions to visibility. Not all stations are quality controlled. Use data with caution, especially dewpoint observations. SCZ027-030-031-034>040-042>050-200600- ...Southeast South Carolina... CITY SKY/WX TMP DP RH WIND PRES REMARKS N Charleston FAIR 58 35 42 N13G23 30.13R Waterfront Prk N/A 63 45 51 N20 29.97R Mount Pleasant FAIR 61 36 39 N6G16 30.13R Johns Island FAIR 61 37 41 N16G24 30.12R Pinopolis N/A 59 41 51 NE17 30.05R Moncks Corner FAIR 55 30 38 N8G16 30.16R Summerville FAIR 55 32 41 N10G17 30.16R Beaufort MCAS FAIR 62 41 46 N15G23 30.12R Beaufort Arpt FAIR 63 41 45 NE21G29 30.11R Hilton Head Is FAIR 64 41 42 NE17 30.11R Walterboro FAIR 57 32 38 NE10G22 30.16R Allendale FAIR 59 34 38 N6G16 30.14R ...Southern Midlands and Pee Dee... CITY SKY/WX TMP DP RH WIND PRES REMARKS Georgetown FAIR 54 32 43 N12 30.16R Kingstree FAIR 54 30 40 N6 30.18R Orangeburg FAIR 54 31 41 NE8 30.18R Barnwell MOCLDY 55 32 41 NE8 30.16R Aiken FAIR 52 32 46 NE12G21 30.21R Manning FAIR 50 28 43 N12 30.18R Columbia FAIR 55 31 39 NE12 30.20R Sumter FAIR 51 29 41 N13 30.18R Florence FAIR 52 32 46 NE13 30.20R Myrtle Beach FAIR 54 31 41 N16G23 30.18R N Myrtle Beach FAIR 54 33 45 N12 30.16R $$ GAZ063-065-086>088-099>101-113>116-118-119-134>141-150-200600- ...Southeast Georgia... CITY SKY/WX TMP DP RH WIND PRES REMARKS Savannah Arpt FAIR 63 41 44 N9 30.10R Hunter AAF FAIR 65 40 39 N10 30.07R Fort Stewart FAIR 61 43 51 NW5 30.08R Statesboro FAIR 58 38 47 N5 30.12R Sylvania FAIR 61 43 51 NE7 30.13R Claxton FAIR 63 42 46 NW7 30.12R ...CSRA, Central and far Southeast Georgia... CITY SKY/WX TMP DP RH WIND PRES REMARKS Thomson FAIR 53 37 53 E6 30.22R Augusta-Bush FAIR 55 34 45 N7 30.16R Augusta-Daniel FAIR 57 32 38 NE9 30.17R Swainsboro FAIR 55 41 58 N3 30.15R Vidalia FAIR 59 41 51 N8 30.13R Eastman FAIR 57 26 30 CALM 30.17R Hazlehurst FAIR 61 36 38 N7 30.12R Alma FAIR 63 42 46 N8 30.11R Waycross FAIR 64 41 43 N7 30.10R Jesup FAIR 66 39 37 N7 30.10R Baxley FAIR 59 39 47 N6 30.11R Brunswick FAIR 66 45 45 N6 30.08R Saint Simons FAIR 68 50 52 N8 30.07R $$ SCZ027-028-034-036>038-045-046-048>050-GAZ119-141-200600- ...Lake and Supplemental Coastal Observations... STATION/POSITION TIME TEMP WIND PRES WAVE SWELL AIR SEA DIR/SP/G HT/PER HT/PER/DIR (UTC) (F) (DEG/KT/KT) (MB) (FT/S) (FT/S/D) Winyah Bay 0345 61 20/ 10 1020.0 Lake Murray 0420 54 20/ 3/ 8 1021.7R ACE Basin NERRS 0345 66 350/ 4 N/A Fort Pulaski 0436 65 66 350/ 6/ 7 1019.0R Sapelo Island 0400 70 360/ 14 1018.0 $$ ANZ835-935-AMZ111-154-330-350-352-354-370-450-454-472-200600- ...C-MAN and Buoy Observations... STATION/POSITION TIME TEMP WIND PRES WAVE SWELL AIR SEA DIR/SP/G HT/PER HT/PER/DIR (UTC) (F) (DEG/KT/KT) (MB) (FT/S) (FT/S/D) Buoy 41004 0450 65 68 20/ 23/ 31 1018.6R 5/ 5 2/150/ 9 Buoy 41008 0450 68 66 10/ 16/ 17 1017.4R 2/ 5 2/130/10 Folly Beach CMAN 0400 65 360/ 15/ 19 1019.5R Capers Nearshore 0408 64 63 20/ 17/ 25 1019.1R Fripp Nearshore 0408 67 64 20/ 14/ 21 1017.8R STATION/POSITION TIME TEMP WIND PRES WAVE SWELL AIR SEA DIR/SP/G HT/PER HT/PER/DIR (UTC) (F) (DEG/KT/KT) (MB) (FT/S) (FT/S/D) 5E St. Marys GA 0500 67 N/A 2/17 Frying Pan Buoy 0450 60 66 10/ 25/ 33 1019.4R 7/ 6 Buoy 41025 0500 55 67 20/ 27/ 35 1020.2 Cape Lookout NC 0400 350/ 16/ 19 1020.1R Buoy 41002 0450 72 71 240/ 16/ 19 1015.8F 7/ 8 3/280/ 8 Buoy 41010 0450 74 73 180/ 14/ 16 1018.3F 2/ 4 2/110/ 9 St Augustine FL 0500 68 67 250/ 9/ 11 1018.2F $$

USA.gov is the U.S. government's official web portal to all federal, state and local government web resources and services.